| time (UTC) | temp F | wind direction | speed MPH | gust MPH | rain 1hr in | rain 24hr in | rain mn in | humidity % | barometer mb |
| 20260901042903 | 65 | 88 | 0.0 | 0.0 | 0.00 | 0.00 | 0.00 | 71 | 1007.9 |
| 20260901042403 | 65 | 88 | 0.0 | 0.0 | 0.00 | 0.00 | 0.00 | 71 | 1007.8 |
| 20260901041903 | 66 | 89 | 0.0 | 0.0 | 0.00 | 0.00 | 0.00 | 70 | 1007.8 |
| 20260901041403 | 66 | 82 | 0.0 | 0.0 | 0.00 | 0.00 | 0.00 | 69 | 1007.6 |
| 20260901040903 | 66 | 112 | 0.0 | 0.0 | 0.00 | 0.00 | 0.00 | 69 | 1007.7 |
| 20260901040404 | 67 | 124 | 0.0 | 0.0 | 0.00 | 0.00 | 0.00 | 68 | 1007.5 |
| 20260901035904 | 67 | 32 | 0.0 | 0.0 | 0.00 | 0.00 | 0.00 | 68 | 1007.4 |
| 20260901035404 | 67 | 32 | 0.0 | 0.0 | 0.00 | 0.00 | 0.00 | 68 | 1007.3 |
| 20260901034903 | 68 | 69 | 0.0 | 0.0 | 0.00 | 0.00 | 0.00 | 67 | 1007.3 |
| 20260901034404 | 68 | 60 | 0.0 | 0.0 | 0.00 | 0.00 | 0.00 | 67 | 1007.2 |
| 20260901033403 | 69 | 92 | 0.0 | 0.0 | 0.00 | 0.00 | 0.00 | 63 | 1007.0 |
| 20260901032904 | 70 | 91 | 0.0 | 0.0 | 0.00 | 0.00 | 0.00 | 63 | 1007.0 |
| 20260901031904 | 71 | 120 | 0.0 | 0.0 | 0.00 | 0.00 | 0.00 | 62 | 1006.9 |
| 20260901031403 | 72 | 119 | 0.0 | 0.0 | 0.00 | 0.00 | 0.00 | 62 | 1006.8 |
| 20260901030903 | 73 | 119 | 0.0 | 0.0 | 0.00 | 0.00 | 0.00 | 61 | 1006.8 |
| 20260901030403 | 74 | 119 | 0.0 | 0.0 | 0.00 | 0.00 | 0.00 | 59 | 1006.7 |
| 20260901025903 | 74 | 119 | 0.0 | 0.0 | 0.00 | 0.00 | 0.00 | 56 | 1006.7 |
| 20260901025403 | 75 | 119 | 0.0 | 0.0 | 0.00 | 0.00 | 0.00 | 56 | 1006.7 |
| 20260901024403 | 76 | 119 | 0.0 | 0.0 | 0.00 | 0.00 | 0.00 | 55 | 1006.6 |
| 20260901023903 | 77 | 119 | 0.0 | 0.0 | 0.00 | 0.00 | 0.00 | 55 | 1006.6 |
| 20260901023403 | 78 | 119 | 0.0 | 0.0 | 0.00 | 0.00 | 0.00 | 55 | 1006.5 |
| 20260901022404 | 79 | 120 | 0.0 | 0.0 | 0.00 | 0.00 | 0.00 | 52 | 1006.5 |
| 20260901021404 | 80 | 120 | 0.0 | 0.0 | 0.00 | 0.00 | 0.00 | 51 | 1006.5 |
| 20260901020904 | 81 | 119 | 0.0 | 0.0 | 0.00 | 0.00 | 0.00 | 49 | 1006.4 |
| 20260901020403 | 81 | 118 | 0.0 | 0.0 | 0.00 | 0.00 | 0.00 | 45 | 1006.5 |
| 20260901015903 | 82 | 109 | 0.0 | 0.0 | 0.00 | 0.00 | 0.00 | 45 | 1006.5 |
| 20260901015404 | 83 | 39 | 0.0 | 0.0 | 0.00 | 0.00 | 0.00 | 45 | 1006.4 |
| 20260901014904 | 83 | 112 | 0.0 | 0.0 | 0.00 | 0.00 | 0.00 | 46 | 1006.4 |
| 20260901014404 | 83 | 110 | 0.0 | 0.0 | 0.00 | 0.00 | 0.00 | 45 | 1006.4 |
| 20260901013903 | 84 | 98 | 0.0 | 0.0 | 0.00 | 0.00 | 0.00 | 40 | 1006.4 |
| 20260901013403 | 84 | 98 | 0.0 | 2.0 | 0.00 | 0.00 | 0.00 | 40 | 1006.4 |
| 20260901012904 | 84 | 96 | 0.0 | 2.0 | 0.00 | 0.00 | 0.00 | 37 | 1006.4 |
| 20260901012403 | 85 | 96 | 0.0 | 0.0 | 0.00 | 0.00 | 0.00 | 37 | 1006.4 |
| 20260901011903 | 85 | 117 | 0.0 | 0.0 | 0.00 | 0.00 | 0.00 | 38 | 1006.4 |
| 20260901011403 | 85 | 74 | 0.0 | 1.0 | 0.00 | 0.00 | 0.00 | 36 | 1006.5 |
| 20260901010903 | 85 | 173 | 0.0 | 2.0 | 0.00 | 0.00 | 0.00 | 36 | 1006.5 |
| 20260901010403 | 85 | 351 | 0.0 | 2.0 | 0.00 | 0.00 | 0.00 | 39 | 1006.5 |
| 20260901005904 | 85 | 240 | 0.0 | 3.0 | 0.00 | 0.00 | 0.00 | 35 | 1006.4 |
| 20260901005403 | 85 | 318 | 0.0 | 6.0 | 0.00 | 0.00 | 0.00 | 36 | 1006.5 |
| 20260901004904 | 85 | 289 | 1.0 | 6.0 | 0.00 | 0.00 | 0.00 | 36 | 1006.6 |
| 20260901004403 | 85 | 206 | 0.0 | 2.0 | 0.00 | 0.00 | 0.00 | 36 | 1006.5 |
| 20260901003903 | 85 | 212 | 0.0 | 2.0 | 0.00 | 0.00 | 0.00 | 36 | 1006.5 |
| 20260901003404 | 85 | 271 | 0.0 | 5.0 | 0.00 | 0.00 | 0.00 | 37 | 1006.6 |
| 20260901002904 | 86 | 191 | 1.0 | 5.0 | 0.00 | 0.00 | 0.00 | 36 | 1006.6 |
| 20260901002403 | 86 | 239 | 1.0 | 3.0 | 0.00 | 0.00 | 0.00 | 35 | 1006.6 |
| 20260901001903 | 85 | 262 | 1.0 | 5.0 | 0.00 | 0.00 | 0.00 | 37 | 1006.6 |
| 20260901001404 | 85 | 253 | 1.0 | 5.0 | 0.00 | 0.00 | 0.00 | 37 | 1006.6 |
| 20260901000903 | 85 | 186 | 0.0 | 5.0 | 0.00 | 0.00 | 0.00 | 37 | 1006.6 |
| 20260901000405 | 86 | 232 | 0.0 | 5.0 | 0.00 | 0.00 | 0.00 | 36 | 1006.6 |
| 20260831235904 | 87 | 194 | 2.0 | 6.0 | 0.00 | 0.00 | 0.00 | 35 | 1006.6 |
| 20260831234903 | 87 | 259 | 2.0 | 5.0 | 0.00 | 0.00 | 0.00 | 36 | 1006.6 |
| 20260831234403 | 87 | 262 | 1.0 | 6.0 | 0.00 | 0.00 | 0.00 | 35 | 1006.7 |
| 20260831233903 | 88 | 208 | 2.0 | 6.0 | 0.00 | 0.00 | 0.00 | 35 | 1006.6 |
| 20260831233404 | 88 | 240 | 1.0 | 5.0 | 0.00 | 0.00 | 0.00 | 35 | 1006.8 |
| 20260831232404 | 88 | 264 | 1.0 | 6.0 | 0.00 | 0.00 | 0.00 | 35 | 1006.8 |
| 20260831231904 | 88 | 231 | 1.0 | 5.0 | 0.00 | 0.00 | 0.00 | 35 | 1006.8 |
| 20260831231404 | 87 | 218 | 2.0 | 5.0 | 0.00 | 0.00 | 0.00 | 36 | 1006.8 |
| 20260831230904 | 87 | 242 | 2.0 | 5.0 | 0.00 | 0.00 | 0.00 | 36 | 1006.8 |
| 20260831230404 | 87 | 187 | 1.0 | 6.0 | 0.00 | 0.00 | 0.00 | 37 | 1006.8 |
| 20260831225903 | 87 | 237 | 3.0 | 6.0 | 0.00 | 0.00 | 0.00 | 35 | 1006.7 |
| 20260831225403 | 88 | 260 | 2.0 | 6.0 | 0.00 | 0.00 | 0.00 | 36 | 1006.8 |
| 20260831224904 | 87 | 338 | 1.0 | 3.0 | 0.00 | 0.00 | 0.00 | 37 | 1006.8 |
| 20260831224403 | 87 | 236 | 1.0 | 3.0 | 0.00 | 0.00 | 0.00 | 38 | 1006.9 |
| 20260831222904 | 87 | 250 | 2.0 | 7.0 | 0.00 | 0.00 | 0.00 | 38 | 1007.0 |
| 20260831222404 | 86 | 263 | 1.0 | 7.0 | 0.00 | 0.00 | 0.00 | 37 | 1007.1 |
| 20260831221903 | 87 | 173 | 2.0 | 7.0 | 0.00 | 0.00 | 0.00 | 37 | 1007.1 |
| 20260831220903 | 86 | 223 | 1.0 | 5.0 | 0.00 | 0.00 | 0.00 | 37 | 1007.3 |
| 20260831220403 | 86 | 257 | 1.0 | 3.0 | 0.00 | 0.00 | 0.00 | 38 | 1007.3 |
| 20260831215903 | 86 | 221 | 1.0 | 5.0 | 0.00 | 0.00 | 0.00 | 37 | 1007.5 |
| 20260831215404 | 86 | 199 | 1.0 | 5.0 | 0.00 | 0.00 | 0.00 | 38 | 1007.5 |
| 20260831214404 | 85 | 263 | 1.0 | 5.0 | 0.00 | 0.00 | 0.00 | 39 | 1007.6 |
| 20260831213904 | 85 | 312 | 2.0 | 5.0 | 0.00 | 0.00 | 0.00 | 38 | 1007.6 |
| 20260831212904 | 85 | 208 | 1.0 | 6.0 | 0.00 | 0.00 | 0.00 | 39 | 1007.7 |
| 20260831212404 | 85 | 202 | 2.0 | 6.0 | 0.00 | 0.00 | 0.00 | 40 | 1007.7 |
| 20260831211904 | 84 | 273 | 2.0 | 5.0 | 0.00 | 0.00 | 0.00 | 40 | 1007.7 |
| 20260831210903 | 83 | 227 | 1.0 | 7.0 | 0.00 | 0.00 | 0.00 | 40 | 1007.8 |
| 20260831210403 | 83 | 50 | 1.0 | 6.0 | 0.00 | 0.00 | 0.00 | 42 | 1007.9 |
| 20260831205904 | 82 | 270 | 2.0 | 6.0 | 0.00 | 0.00 | 0.00 | 41 | 1007.9 |
| 20260831205403 | 82 | 123 | 1.0 | 6.0 | 0.00 | 0.00 | 0.00 | 41 | 1008.0 |
| 20260831204904 | 82 | 240 | 2.0 | 6.0 | 0.00 | 0.00 | 0.00 | 43 | 1008.0 |
| 20260831204403 | 82 | 224 | 2.0 | 6.0 | 0.00 | 0.00 | 0.00 | 42 | 1008.1 |
| 20260831203904 | 81 | 285 | 1.0 | 6.0 | 0.00 | 0.00 | 0.00 | 43 | 1008.2 |
| 20260831203404 | 81 | 220 | 1.0 | 6.0 | 0.00 | 0.00 | 0.00 | 42 | 1008.2 |
| 20260831202404 | 81 | 124 | 1.0 | 7.0 | 0.00 | 0.00 | 0.00 | 44 | 1008.4 |
| 20260831201903 | 81 | 3 | 1.0 | 7.0 | 0.00 | 0.00 | 0.00 | 45 | 1008.5 |
| 20260831201404 | 80 | 236 | 1.0 | 7.0 | 0.00 | 0.00 | 0.00 | 45 | 1008.5 |
| 20260831200903 | 80 | 236 | 2.0 | 7.0 | 0.00 | 0.00 | 0.00 | 46 | 1008.6 |
| 20260831200403 | 79 | 264 | 2.0 | 7.0 | 0.00 | 0.00 | 0.00 | 47 | 1008.7 |
| 20260831195904 | 79 | 198 | 1.0 | 7.0 | 0.00 | 0.00 | 0.00 | 47 | 1008.8 |
| 20260831195404 | 78 | 321 | 0.0 | 6.0 | 0.00 | 0.00 | 0.00 | 48 | 1008.9 |
| 20260831194904 | 78 | 165 | 2.0 | 5.0 | 0.00 | 0.00 | 0.00 | 48 | 1009.0 |
| 20260831194404 | 78 | 85 | 1.0 | 5.0 | 0.00 | 0.00 | 0.00 | 50 | 1009.0 |
| 20260831193903 | 77 | 300 | 1.0 | 5.0 | 0.00 | 0.00 | 0.00 | 48 | 1009.1 |
| 20260831193403 | 77 | 85 | 0.0 | 5.0 | 0.00 | 0.00 | 0.00 | 49 | 1009.1 |
| 20260831192903 | 76 | 346 | 1.0 | 5.0 | 0.00 | 0.00 | 0.00 | 50 | 1009.2 |
| 20260831192403 | 76 | 317 | 2.0 | 6.0 | 0.00 | 0.00 | 0.00 | 51 | 1009.2 |
| 20260831191904 | 76 | 6 | 1.0 | 7.0 | 0.00 | 0.00 | 0.00 | 51 | 1009.3 |
| 20260831191403 | 76 | 52 | 3.0 | 7.0 | 0.00 | 0.00 | 0.00 | 52 | 1009.4 |
| 20260831190903 | 75 | 58 | 1.0 | 7.0 | 0.00 | 0.00 | 0.00 | 52 | 1009.6 |
| 20260831190403 | 75 | 185 | 2.0 | 3.0 | 0.00 | 0.00 | 0.00 | 51 | 1009.7 |
| 20260831185903 | 75 | 155 | 0.0 | 6.0 | 0.00 | 0.00 | 0.00 | 52 | 1009.7 |
| 20260831185404 | 74 | 237 | 1.0 | 6.0 | 0.00 | 0.00 | 0.00 | 54 | 1009.8 |
| 20260831184903 | 74 | 268 | 2.0 | 3.0 | 0.00 | 0.00 | 0.00 | 54 | 1009.9 |
| 20260831184404 | 74 | 197 | 1.0 | 3.0 | 0.00 | 0.00 | 0.00 | 54 | 1009.8 |
| 20260831183903 | 73 | 236 | 1.0 | 3.0 | 0.00 | 0.00 | 0.00 | 55 | 1010.0 |
| 20260831183404 | 73 | 219 | 1.0 | 3.0 | 0.00 | 0.00 | 0.00 | 55 | 1010.2 |
| 20260831182904 | 72 | 72 | 0.0 | 3.0 | 0.00 | 0.00 | 0.00 | 57 | 1010.2 |
| 20260831182403 | 72 | 285 | 2.0 | 5.0 | 0.00 | 0.00 | 0.00 | 56 | 1010.2 |
| 20260831181904 | 71 | 283 | 1.0 | 5.0 | 0.00 | 0.00 | 0.00 | 59 | 1010.4 |
| 20260831181403 | 71 | 145 | 1.0 | 5.0 | 0.00 | 0.00 | 0.00 | 59 | 1010.3 |
| 20260831180904 | 70 | 162 | 0.0 | 3.0 | 0.00 | 0.00 | 0.00 | 59 | 1010.4 |
| 20260831180403 | 70 | 3 | 1.0 | 5.0 | 0.00 | 0.00 | 0.00 | 59 | 1010.5 |
| 20260831175903 | 70 | 127 | 0.0 | 5.0 | 0.00 | 0.00 | 0.00 | 60 | 1010.5 |
| 20260831175404 | 70 | 233 | 1.0 | 5.0 | 0.00 | 0.00 | 0.00 | 59 | 1010.5 |
| 20260831174904 | 70 | 348 | 1.0 | 2.0 | 0.00 | 0.00 | 0.00 | 62 | 1010.6 |
| 20260831174404 | 69 | 348 | 1.0 | 3.0 | 0.00 | 0.00 | 0.00 | 63 | 1010.6 |
| 20260831173903 | 68 | 235 | 1.0 | 3.0 | 0.00 | 0.00 | 0.00 | 63 | 1010.6 |
| 20260831173403 | 68 | 215 | 1.0 | 5.0 | 0.00 | 0.00 | 0.00 | 65 | 1010.7 |
| 20260831172904 | 67 | 189 | 2.0 | 5.0 | 0.00 | 0.00 | 0.00 | 64 | 1010.8 |
| 20260831172403 | 67 | 240 | 0.0 | 5.0 | 0.00 | 0.00 | 0.00 | 67 | 1010.8 |
| 20260831171903 | 67 | 295 | 1.0 | 5.0 | 0.00 | 0.00 | 0.00 | 67 | 1010.9 |
| 20260831170903 | 66 | 254 | 1.0 | 5.0 | 0.00 | 0.00 | 0.00 | 68 | 1010.9 |
| 20260831165903 | 65 | 232 | 0.0 | 2.0 | 0.00 | 0.00 | 0.00 | 70 | 1010.9 |
| 20260831165404 | 65 | 321 | 0.0 | 3.0 | 0.00 | 0.00 | 0.00 | 70 | 1010.8 |
| 20260831164903 | 64 | 190 | 1.0 | 3.0 | 0.00 | 0.00 | 0.00 | 71 | 1010.9 |
| 20260831164403 | 64 | 248 | 1.0 | 3.0 | 0.00 | 0.00 | 0.00 | 72 | 1011.0 |
| 20260831162903 | 62 | 280 | 1.0 | 3.0 | 0.00 | 0.00 | 0.00 | 74 | 1011.2 |
| 20260831161903 | 62 | 203 | 0.0 | 5.0 | 0.00 | 0.00 | 0.00 | 77 | 1011.3 |
| 20260831161404 | 61 | 275 | 0.0 | 3.0 | 0.00 | 0.00 | 0.00 | 77 | 1011.3 |
| 20260831160904 | 61 | 263 | 1.0 | 2.0 | 0.00 | 0.00 | 0.00 | 78 | 1011.4 |
| 20260831160404 | 60 | 198 | 1.0 | 2.0 | 0.00 | 0.00 | 0.00 | 78 | 1011.3 |
| 20260831155904 | 60 | 141 | 0.0 | 2.0 | 0.00 | 0.00 | 0.00 | 79 | 1011.5 |
| 20260831155404 | 59 | 232 | 0.0 | 2.0 | 0.00 | 0.00 | 0.00 | 81 | 1011.5 |
| 20260831154904 | 59 | 249 | 0.0 | 1.0 | 0.00 | 0.00 | 0.00 | 82 | 1011.5 |
| 20260831153904 | 57 | 286 | 0.0 | 3.0 | 0.00 | 0.00 | 0.00 | 83 | 1011.6 |
| 20260831153404 | 57 | 258 | 1.0 | 3.0 | 0.00 | 0.00 | 0.00 | 84 | 1011.7 |
| 20260831152903 | 57 | 227 | 0.0 | 0.0 | 0.00 | 0.00 | 0.00 | 85 | 1011.7 |
| 20260831152404 | 56 | 252 | 0.0 | 0.0 | 0.00 | 0.00 | 0.00 | 86 | 1011.6 |
| 20260831151903 | 56 | 132 | 0.0 | 0.0 | 0.00 | 0.00 | 0.00 | 88 | 1011.6 |
| 20260831151404 | 56 | 85 | 0.0 | 0.0 | 0.00 | 0.00 | 0.00 | 88 | 1011.6 |
| 20260831150904 | 55 | 85 | 0.0 | 0.0 | 0.00 | 0.00 | 0.00 | 89 | 1011.7 |
| 20260831150404 | 54 | 84 | 0.0 | 0.0 | 0.00 | 0.00 | 0.00 | 91 | 1011.7 |
| 20260831145904 | 53 | 90 | 0.0 | 0.0 | 0.00 | 0.00 | 0.00 | 90 | 1011.8 |
| 20260831145403 | 52 | 90 | 0.0 | 0.0 | 0.00 | 0.00 | 0.00 | 90 | 1011.8 |
| 20260831144903 | 51 | 87 | 0.0 | 0.0 | 0.00 | 0.00 | 0.00 | 91 | 1011.7 |
| 20260831144404 | 51 | 112 | 0.0 | 0.0 | 0.00 | 0.00 | 0.00 | 92 | 1011.8 |
| 20260831143403 | 49 | 92 | 0.0 | 0.0 | 0.00 | 0.00 | 0.00 | 94 | 1011.7 |
| 20260831142903 | 48 | 90 | 0.0 | 0.0 | 0.00 | 0.00 | 0.00 | 95 | 1011.7 |
| 20260831142404 | 48 | 90 | 0.0 | 0.0 | 0.00 | 0.00 | 0.00 | 95 | 1011.8 |
| 20260831141903 | 47 | 90 | 0.0 | 0.0 | 0.00 | 0.00 | 0.00 | 95 | 1011.8 |
| 20260831141404 | 47 | 90 | 0.0 | 0.0 | 0.00 | 0.00 | 0.00 | 94 | 1011.8 |
| 20260831140404 | 46 | 90 | 0.0 | 0.0 | 0.00 | 0.00 | 0.00 | 94 | 1011.9 |
| 20260831135904 | 46 | 90 | 0.0 | 0.0 | 0.00 | 0.00 | 0.00 | 94 | 1011.9 |
| 20260831134904 | 46 | 90 | 0.0 | 0.0 | 0.00 | 0.00 | 0.00 | 94 | 1011.8 |
| 20260831134403 | 45 | 90 | 0.0 | 0.0 | 0.00 | 0.00 | 0.00 | 94 | 1011.9 |
| 20260831133404 | 46 | 90 | 0.0 | 0.0 | 0.00 | 0.00 | 0.00 | 94 | 1011.8 |
| 20260831132904 | 46 | 90 | 0.0 | 0.0 | 0.00 | 0.00 | 0.00 | 93 | 1011.9 |
| 20260831132403 | 46 | 90 | 0.0 | 0.0 | 0.00 | 0.00 | 0.00 | 93 | 1011.9 |
| 20260831131903 | 46 | 90 | 0.0 | 0.0 | 0.00 | 0.00 | 0.00 | 93 | 1012.0 |
| 20260831131403 | 46 | 90 | 0.0 | 0.0 | 0.00 | 0.00 | 0.00 | 93 | 1012.0 |
| 20260831130903 | 46 | 90 | 0.0 | 0.0 | 0.00 | 0.00 | 0.00 | 94 | 1012.0 |
| 20260831130403 | 46 | 90 | 0.0 | 0.0 | 0.00 | 0.00 | 0.00 | 93 | 1012.0 |
| 20260831125904 | 46 | 90 | 0.0 | 0.0 | 0.00 | 0.00 | 0.00 | 93 | 1012.1 |
| 20260831125404 | 46 | 90 | 0.0 | 0.0 | 0.00 | 0.00 | 0.00 | 93 | 1012.1 |
| 20260831124903 | 46 | 90 | 0.0 | 0.0 | 0.00 | 0.00 | 0.00 | 93 | 1012.1 |
| 20260831124403 | 46 | 90 | 0.0 | 0.0 | 0.00 | 0.00 | 0.00 | 93 | 1012.1 |
| 20260831123904 | 46 | 90 | 0.0 | 0.0 | 0.00 | 0.00 | 0.00 | 93 | 1012.2 |
| 20260831123404 | 46 | 90 | 0.0 | 0.0 | 0.00 | 0.00 | 0.00 | 93 | 1012.2 |
| 20260831122404 | 47 | 90 | 0.0 | 0.0 | 0.00 | 0.00 | 0.00 | 93 | 1012.3 |
| 20260831121904 | 47 | 90 | 0.0 | 0.0 | 0.00 | 0.00 | 0.00 | 93 | 1012.4 |
| 20260831121403 | 47 | 90 | 0.0 | 0.0 | 0.00 | 0.00 | 0.00 | 93 | 1012.5 |
| 20260831120904 | 47 | 90 | 0.0 | 0.0 | 0.00 | 0.00 | 0.00 | 93 | 1012.5 |
| 20260831120404 | 47 | 90 | 0.0 | 0.0 | 0.00 | 0.00 | 0.00 | 93 | 1012.5 |
| 20260831115904 | 47 | 90 | 0.0 | 0.0 | 0.00 | 0.00 | 0.00 | 93 | 1012.4 |
| 20260831115404 | 47 | 90 | 0.0 | 0.0 | 0.00 | 0.00 | 0.00 | 93 | 1012.4 |
| 20260831114903 | 47 | 90 | 0.0 | 0.0 | 0.00 | 0.00 | 0.00 | 93 | 1012.4 |
| 20260831114404 | 47 | 90 | 0.0 | 0.0 | 0.00 | 0.00 | 0.00 | 93 | 1012.4 |
| 20260831113903 | 47 | 94 | 0.0 | 0.0 | 0.00 | 0.00 | 0.00 | 93 | 1012.4 |
| 20260831112404 | 47 | 94 | 0.0 | 0.0 | 0.00 | 0.00 | 0.00 | 93 | 1012.6 |
| 20260831111903 | 47 | 94 | 0.0 | 0.0 | 0.00 | 0.00 | 0.00 | 93 | 1012.6 |
| 20260831111404 | 48 | 94 | 0.0 | 0.0 | 0.00 | 0.00 | 0.00 | 93 | 1012.6 |
| 20260831110903 | 48 | 94 | 0.0 | 0.0 | 0.00 | 0.00 | 0.00 | 93 | 1012.7 |
| 20260831110403 | 47 | 94 | 0.0 | 0.0 | 0.00 | 0.00 | 0.00 | 93 | 1012.7 |
| 20260831105904 | 48 | 112 | 0.0 | 0.0 | 0.00 | 0.00 | 0.00 | 93 | 1012.8 |
| 20260831105404 | 48 | 128 | 0.0 | 0.0 | 0.00 | 0.00 | 0.00 | 93 | 1012.8 |
| 20260831104903 | 48 | 128 | 0.0 | 0.0 | 0.00 | 0.00 | 0.00 | 93 | 1012.8 |
| 20260831104404 | 48 | 128 | 0.0 | 0.0 | 0.00 | 0.00 | 0.00 | 93 | 1012.8 |
| 20260831103903 | 48 | 128 | 0.0 | 0.0 | 0.00 | 0.00 | 0.00 | 93 | 1012.8 |
| 20260831103404 | 48 | 128 | 0.0 | 0.0 | 0.00 | 0.00 | 0.00 | 93 | 1012.8 |
| 20260831102904 | 48 | 128 | 0.0 | 0.0 | 0.00 | 0.00 | 0.00 | 93 | 1012.9 |
| 20260831102403 | 48 | 128 | 0.0 | 0.0 | 0.00 | 0.00 | 0.00 | 93 | 1013.0 |
| 20260831101904 | 48 | 128 | 0.0 | 0.0 | 0.00 | 0.00 | 0.00 | 92 | 1013.0 |
| 20260831101403 | 48 | 128 | 0.0 | 0.0 | 0.00 | 0.00 | 0.00 | 93 | 1013.0 |
| 20260831100904 | 48 | 128 | 0.0 | 0.0 | 0.00 | 0.00 | 0.00 | 93 | 1013.1 |
| 20260831100404 | 48 | 128 | 0.0 | 0.0 | 0.00 | 0.00 | 0.00 | 92 | 1013.1 |
| 20260831095903 | 49 | 128 | 0.0 | 0.0 | 0.00 | 0.00 | 0.00 | 92 | 1013.1 |
| 20260831095403 | 49 | 128 | 0.0 | 0.0 | 0.00 | 0.00 | 0.00 | 92 | 1013.2 |
| 20260831094903 | 49 | 128 | 0.0 | 0.0 | 0.00 | 0.00 | 0.00 | 92 | 1013.2 |
| 20260831094404 | 49 | 128 | 0.0 | 0.0 | 0.00 | 0.00 | 0.00 | 92 | 1013.2 |
| 20260831093904 | 49 | 128 | 0.0 | 0.0 | 0.00 | 0.00 | 0.00 | 92 | 1013.3 |
| 20260831093404 | 49 | 128 | 0.0 | 0.0 | 0.00 | 0.00 | 0.00 | 92 | 1013.3 |
| 20260831092904 | 49 | 128 | 0.0 | 0.0 | 0.00 | 0.00 | 0.00 | 92 | 1013.4 |
| 20260831091904 | 49 | 128 | 0.0 | 0.0 | 0.00 | 0.00 | 0.00 | 91 | 1013.5 |
| 20260831091404 | 49 | 128 | 0.0 | 0.0 | 0.00 | 0.00 | 0.00 | 92 | 1013.5 |
| 20260831090903 | 49 | 128 | 0.0 | 0.0 | 0.00 | 0.00 | 0.00 | 91 | 1013.5 |
| 20260831090403 | 49 | 128 | 0.0 | 0.0 | 0.00 | 0.00 | 0.00 | 91 | 1013.5 |
| 20260831085904 | 50 | 128 | 0.0 | 0.0 | 0.00 | 0.00 | 0.00 | 91 | 1013.6 |
| 20260831085403 | 50 | 128 | 0.0 | 0.0 | 0.00 | 0.00 | 0.00 | 91 | 1013.7 |
| 20260831084903 | 50 | 128 | 0.0 | 0.0 | 0.00 | 0.00 | 0.00 | 91 | 1013.7 |
| 20260831084404 | 50 | 128 | 0.0 | 0.0 | 0.00 | 0.00 | 0.00 | 90 | 1013.8 |
| 20260831083903 | 50 | 128 | 0.0 | 0.0 | 0.00 | 0.00 | 0.00 | 91 | 1013.8 |
| 20260831083404 | 50 | 128 | 0.0 | 0.0 | 0.00 | 0.00 | 0.00 | 90 | 1013.8 |
| 20260831082903 | 50 | 128 | 0.0 | 0.0 | 0.00 | 0.00 | 0.00 | 90 | 1013.8 |
| 20260831082404 | 51 | 128 | 0.0 | 0.0 | 0.00 | 0.00 | 0.00 | 90 | 1013.9 |
| 20260831081903 | 51 | 128 | 0.0 | 0.0 | 0.00 | 0.00 | 0.00 | 90 | 1013.9 |
| 20260831081404 | 51 | 128 | 0.0 | 0.0 | 0.00 | 0.00 | 0.00 | 90 | 1013.8 |
| 20260831080904 | 51 | 128 | 0.0 | 0.0 | 0.00 | 0.00 | 0.00 | 90 | 1013.9 |
| 20260831075904 | 51 | 128 | 0.0 | 0.0 | 0.00 | 0.00 | 0.00 | 90 | 1014.0 |
| 20260831075404 | 51 | 128 | 0.0 | 0.0 | 0.00 | 0.00 | 0.00 | 90 | 1014.1 |
| 20260831074904 | 51 | 128 | 0.0 | 0.0 | 0.00 | 0.00 | 0.00 | 90 | 1014.1 |
| 20260831073903 | 51 | 128 | 0.0 | 0.0 | 0.00 | 0.00 | 0.00 | 89 | 1014.2 |
| 20260831073403 | 51 | 128 | 0.0 | 0.0 | 0.00 | 0.00 | 0.00 | 89 | 1014.2 |
| 20260831072903 | 52 | 128 | 0.0 | 0.0 | 0.00 | 0.00 | 0.00 | 89 | 1014.3 |
| 20260831072403 | 52 | 143 | 0.0 | 0.0 | 0.00 | 0.00 | 0.00 | 89 | 1014.4 |
| 20260831071903 | 52 | 143 | 0.0 | 0.0 | 0.00 | 0.00 | 0.00 | 89 | 1014.3 |
| 20260831070903 | 52 | 175 | 0.0 | 0.0 | 0.00 | 0.00 | 0.00 | 88 | 1014.3 |
| 20260831070402 | 52 | 175 | 0.0 | 0.0 | 0.00 | 0.00 | 0.00 | 87 | 1014.3 |
| 20260831065902 | 53 | 175 | 0.0 | 0.0 | 0.00 | 0.00 | 0.00 | 87 | 1014.4 |
| 20260831065402 | 53 | 175 | 0.0 | 0.0 | 0.00 | 0.00 | 0.00 | 87 | 1014.4 |
| 20260831064902 | 53 | 175 | 0.0 | 0.0 | 0.00 | 0.00 | 0.00 | 88 | 1014.6 |
| 20260831063402 | 53 | 175 | 0.0 | 1.0 | 0.00 | 0.00 | 0.00 | 88 | 1014.6 |
| 20260831062902 | 53 | 175 | 0.0 | 1.0 | 0.00 | 0.00 | 0.00 | 87 | 1014.6 |
| 20260831062402 | 54 | 175 | 0.0 | 0.0 | 0.00 | 0.00 | 0.00 | 87 | 1014.7 |
| 20260831060902 | 54 | 175 | 0.0 | 0.0 | 0.00 | 0.00 | 0.00 | 85 | 1014.7 |
| 20260831060402 | 54 | 175 | 0.0 | 0.0 | 0.00 | 0.00 | 0.00 | 85 | 1014.9 |
| 20260831055902 | 55 | 175 | 0.0 | 0.0 | 0.00 | 0.00 | 0.00 | 85 | 1014.9 |
| 20260831055403 | 55 | 175 | 0.0 | 0.0 | 0.00 | 0.00 | 0.00 | 84 | 1015.0 |
| 20260831054903 | 55 | 175 | 0.0 | 0.0 | 0.00 | 0.00 | 0.00 | 83 | 1015.0 |
| 20260831054403 | 55 | 175 | 0.0 | 0.0 | 0.00 | 0.00 | 0.00 | 84 | 1015.0 |
| 20260831053903 | 55 | 175 | 0.0 | 0.0 | 0.00 | 0.00 | 0.00 | 83 | 1015.0 |
| 20260831053403 | 56 | 175 | 0.0 | 0.0 | 0.00 | 0.00 | 0.00 | 83 | 1015.2 |
| 20260831052902 | 56 | 175 | 0.0 | 0.0 | 0.00 | 0.00 | 0.00 | 83 | 1015.2 |
| 20260831052403 | 56 | 175 | 0.0 | 0.0 | 0.00 | 0.00 | 0.00 | 82 | 1015.2 |
| 20260831051903 | 56 | 175 | 0.0 | 0.0 | 0.00 | 0.00 | 0.00 | 82 | 1015.3 |
| 20260831051403 | 57 | 175 | 0.0 | 0.0 | 0.00 | 0.00 | 0.00 | 81 | 1015.3 |
| 20260831050903 | 57 | 175 | 0.0 | 0.0 | 0.00 | 0.00 | 0.00 | 81 | 1015.3 |
| 20260831050403 | 57 | 181 | 0.0 | 0.0 | 0.00 | 0.00 | 0.00 | 79 | 1015.3 |
| 20260831045902 | 57 | 182 | 0.0 | 0.0 | 0.00 | 0.00 | 0.00 | 79 | 1015.3 |
| 20260831045402 | 58 | 182 | 0.0 | 0.0 | 0.00 | 0.00 | 0.00 | 79 | 1015.3 |
| 20260831044902 | 58 | 182 | 0.0 | 0.0 | 0.00 | 0.00 | 0.00 | 77 | 1015.4 |
| 20260831044402 | 58 | 182 | 0.0 | 0.0 | 0.00 | 0.00 | 0.00 | 78 | 1015.4 |
| 20260831043402 | 59 | 182 | 0.0 | 0.0 | 0.00 | 0.00 | 0.00 | 76 | 1015.5 |